{"data":{"norad_id":40534,"intl_designator":"2015-013A","name":"GPS BIIF-9  (PRN 26)","alt_names":[],"object_type":"PAYLOAD","status":"ACTIVE","operator":null,"country":"US","launch_date":"2015-03-25","launch_site_code":"AFETR","launch_vehicle":null,"mission":null,"orbit_class":"UNKNOWN","rcs_meters":30.7354,"size_class":null,"mass_kg":null,"dimensions":null,"purposes":["earth_obs","nav"],"wikipedia_slug":null,"has_3d_model":false,"image_url":null,"decayed_at":null,"tle_current":{"epoch":"2026-09-17T19:06:59.773824Z","epoch_age_seconds":247949,"freshness":"STALE","line1":"1 40534U 15013A   26260.79652516  .00000004  00000+0  00000+0 0  9995","line2":"2 40534  53.1567 200.3502 0113122  41.2003 319.6409  2.00570574 83684","mean_motion":2.00570574,"eccentricity":0.0113122,"inclination_deg":53.1567,"raan_deg":200.3502,"arg_perigee_deg":41.2003,"mean_anomaly_deg":319.6409,"bstar":0,"rev_number":8368,"period_min":717.95177691419,"perigee_km":19881.146478219,"apogee_km":20482.044489831,"semimajor_km":26559.732484025,"source":"CELESTRAK","updated_at":"2026-09-20T09:00:46.118407Z"}}}